Location: Seven Kings
(51.5667°N, 0.1000°E)
Time: 02:28:48
(UTC+00:00)

Cosmos 1980 Rocket - Pass Details

Date: 29 October 2020
Orbit: 831 x 848 km, 71.0° (Epoch: 27 November)

Event Time Altitude Azimuth Distance (km) Brightness Sun altitude
Rises 20:58:36 0° 247° (WSW) 3,382 5.7 -39.9°
Reaches altitude 10° 21:01:23 10° 259° (W) 2,448 5.0 -40.3°
Enters shadow 21:03:16 19° 274° (W) 1,915 4.5 -40.5°
